Location: Hilton Head Island
(32.2163°N, 80.7526°W)
Time: 00:50:16
(UTC-05:00)

Tiros 1 despin weight - Pass Details

Date: 16 February 2026
Orbit: 556 x 593 km, 48.2° (Epoch: 5 March)

Event Time Altitude Azimuth Distance (km) Brightness Sun altitude
Rises 15:05:07 0° 233° (SW) 2,739 ? 33.3°
Reaches altitude 10° 15:07:22 10° 235° (SW) 1,840 ? 32.9°
Maximum altitude 15:11:34 76° 320° (NW) 575 ? 32.3°
Drops below altitude 10° 15:15:46 10° 48° (NE) 1,836 ? 31.7°
Sets 15:18:01 0° 49° (NE) 2,731 ? 31.3°
